Home   Weather   Rasht   Past weeks
Flag for Iran

Past Weather in Rasht, Iran — Yesterday and Last 2 Weeks

Now
77 °F

Passing clouds.


Feels Like: 79 °F
Forecast: 76 / 65 °F
Wind: 9 mph from Southwest

Location: Rasht Airport

Current Time: May 20, 2019 at 1:42:55 am

Latest Report: May 20, 2019 at 12:30 am


Visibility: N/A

Pressure: 29.68 "Hg

Humidity: 61%

Dew Point: 63 °F

Location of RashtLocation

Past Weather in Rasht — Graph

°F

Rasht Temperature Yesterday

Maximum temperature yesterday: 90 °F (at 3:00 pm)
Minimum temperature yesterday: 66 °F (at 3:30 am)
Average temperature yesterday: 78 °F

High & Low Weather Summary for the Past Weeks

 TemperatureHumidityPressure
High90 °F (May 19, 3:00 pm)100% (May 5, 3:30 am)30.07 "Hg (May 5, 3:30 am)
Low61 °F (May 5, 1:30 am)27% (May 19, 2:30 pm)29.62 "Hg (May 8, 5:00 pm)
Average71 °F80%29.88 "Hg
* Reported May 5 12:30 am — May 20 12:30 am, Rasht. Weather by CustomWeather, © 2019

Note: Actual official high and low records may vary slightly from our data, if they occured in-between our weather recording intervals... More about our weather records

Advertising

Rasht Weather History for the Previous 24 Hours

Scroll right to see more
 ConditionsComfort  
Time TempWeatherWind HumidityBarometerVisibility
12:30 am
Mon, May 20
77 °FPassing clouds.9 mph61%29.68 "HgN/A
11:30 pm
Sun, May 19
84 °FPartly cloudy.7 mph48%29.68 "HgN/A
10:30 pm79 °FPartly cloudy.9 mph74%29.68 "Hg5 mi
10:00 pm77 °FPartly cloudy.5 mph74%29.68 "Hg5 mi
9:30 pm75 °FPartly cloudy.7 mph74%29.68 "Hg5 mi
9:00 pm73 °FPartly cloudy.7 mph83%29.71 "Hg5 mi
8:30 pm73 °FBroken clouds.5 mph83%29.71 "Hg5 mi
8:00 pm73 °FBroken clouds.5 mph78%29.71 "HgN/A
7:30 pm75 °FBroken clouds.14 mph78%29.68 "Hg5 mi
7:00 pm79 °FPartly sunny.9 mph74%29.65 "HgN/A
6:30 pm81 °FPartly sunny.9 mph70%29.65 "HgN/A
6:00 pm86 °FScattered clouds.5 mph52%29.65 "HgN/A
5:30 pm86 °FScattered clouds.5 mph49%29.62 "HgN/A
5:00 pm86 °FScattered clouds.5 mph43%29.62 "HgN/A
4:30 pm88 °FScattered clouds.7 mph40%29.62 "HgN/A
4:00 pm90 °FScattered clouds.9 mph41%29.62 "HgN/A
3:30 pm90 °FScattered clouds.9 mph43%29.62 "HgN/A
3:00 pm90 °FScattered clouds.7 mph46%29.65 "HgN/A
2:30 pm88 °FScattered clouds.7 mph27%29.65 "HgN/A
2:00 pm88 °FSunny.5 mph55%29.65 "Hg10 mi
1:30 pm88 °FSunny.5 mph46%29.68 "Hg10 mi
1:00 pm84 °FSunny.5 mph55%29.68 "Hg10 mi
12:30 pm84 °FSunny.5 mph55%29.68 "Hg10 mi
12:00 pm82 °FSunny.7 mph62%29.68 "Hg10 mi
11:30 am82 °FSunny.7 mph62%29.71 "Hg10 mi
11:00 am79 °FSunny.5 mph65%29.71 "Hg10 mi
10:30 am79 °FSunny.5 mph65%29.71 "Hg10 mi
10:00 am75 °FSunny.5 mph69%29.74 "Hg10 mi
9:30 am75 °FSunny.5 mph69%29.74 "Hg10 mi
9:00 am73 °FSunny.5 mph78%29.74 "Hg10 mi
8:30 am72 °FClear.5 mph83%29.74 "Hg4 mi
8:00 am68 °FPartly sunny.No wind94%29.74 "Hg4 mi
7:30 am68 °FFog.No wind94%29.74 "Hg2 mi
7:00 am68 °FFog.No wind94%29.74 "Hg2 mi
6:30 am68 °FFog.No wind94%29.74 "Hg1 mi
5:30 am68 °FFog.No wind100%29.74 "Hg1 mi
4:30 am66 °FFog.No wind94%29.74 "Hg1 mi
3:30 am66 °FFog.No wind100%29.74 "Hg1 mi
2:30 am68 °FFog.No wind94%29.74 "Hg2 mi
1:30 am68 °FFog.No wind94%29.77 "Hg2 mi
Weather by CustomWeather, © 2019

See weather overview